カタログに戻る

SL-12 R/B

AUX MOTOR

運用中UNKNOWN
NORAD 4790·ROCKET BODY·🇷🇺 Russia

打ち上げ Dec 2, 1970 から Baikonur Cosmodrome

Loading…

次のパス

TLE

Source: Space-Track
1 04790U 70103C   26230.15192681  .00000099  00000-0  72543-2 0  9998
2 04790  51.5835 237.7235 1784068 162.7359 204.2995  9.05040559841703

AllMySatでSL-12 R/Bをリアルタイム追跡

Download on the App Store